Flag for Botswana Weather past 2 weeks in Molepolole, Botswana

Now
63 °F

Clear.


Feels Like: 63 °F
Forecast: 56 / 83 °F
Wind: 8 mph from West

Location: Seretse Khama International Airport

Current Time: Apr 26, 2015 at 12:19:01 AM

Latest Report: Apr 25, 2015 at 11:00 PM


Visibility: 10 mi

Pressure: 30.24 "Hg

Humidity: 64%

Dew point: 50 °F

Location of MolepololeLocation

Historic Weather in Molepolole — Graph

°F

Molepolole temperature yesterday

Maximum temperature yesterday: 81 °F (at 5:00 PM)
Minimum temperature yesterday: 57 °F (at 6:00 AM)
Average temperature yesterday: 68 °F

Past Weeks' High & Low Weather Summary

 TemperatureHumidityPressure
High88 °F (Apr 15, 3:00 PM)100% (Apr 12, 6:00 AM)30.36 "Hg (Apr 12, 6:00 AM)
Low54 °F (Apr 16, 6:00 AM)16% (Apr 15, 3:00 PM)29.92 "Hg (Apr 15, 3:00 PM)
Average69 °F61%30.17 "Hg
* Reported Apr 10 10:00 PM — Apr 25 10:00 PM, Molepolole, Weather by CustomWeather, © 2015

Note: Actual official high and low records may vary slightly from our data, if they occured in-between our weather recording intervals... More about our weather records

Advertising

Molepolole weather history for previous 24 hours

 ConditionsComfort  
Time TempWeatherWind HumidityBarometerVisibility
10:00 PM
Sat, Apr 25
64 °FPassing clouds.2 mph60%30.24 "HgN/A
8:00 PM73 °FPassing clouds.3 mph36%30.24 "HgN/A
5:00 PM81 °FPassing clouds.2 mph30%30.18 "HgN/A
2:00 PM79 °FPassing clouds.5 mph48%30.24 "HgN/A
1:00 PM77 °FPassing clouds.6 mph47%30.27 "HgN/A
12:00 PM75 °FPassing clouds.6 mph50%30.30 "HgN/A
11:00 AM73 °FPassing clouds.7 mph53%30.33 "HgN/A
10:00 AM72 °FPassing clouds.7 mph61%30.36 "HgN/A
9:00 AM68 °FPassing clouds.7 mph64%30.36 "HgN/A
8:00 AM64 °FSunny.2 mph78%30.33 "Hg10 mi
7:00 AM59 °FSunny.5 mph94%30.33 "Hg10 mi
6:00 AM57 °FSunny.6 mph100%30.33 "Hg10 mi
5:00 AM59 °FClear.6 mph94%30.30 "Hg10 mi
4:00 AM66 °FClear.8 mph56%30.21 "Hg10 mi
3:00 AM61 °FClear.3 mph83%30.30 "Hg10 mi
12:00 AM66 °FClear.7 mph68%30.33 "Hg10 mi
Weather by CustomWeather, © 2015

See weather overviewHow to use our weather pages